GW3037 Weather Reports


Display with metric or nautical units.
time (UTC)temp
F
wind
direction
speed
MPH
gust
MPH
rain 1hr
in
rain 24hr
in
rain mn
in
humidity
%
barometer
mb
20260510120010 77 141 4.0 8.0 0.00 0.30 0.00 89 1012.0
20260510114511 77 141 3.0 7.0 0.00 0.43 0.00 89 1011.9
20260510113019 77 141 2.0 7.0 0.00 0.43 0.00 89 1011.9
20260510111522 77 141 3.0 7.0 0.00 0.43 0.00 89 1011.8
20260510110036 77 141 3.0 5.0 0.00 0.43 0.00 89 1011.8
20260510104535 77 141 3.0 5.0 0.00 0.52 0.00 89 1011.8
20260510103046 77 141 3.0 8.0 0.00 0.52 0.00 89 1011.7
20260510101544 77 141 2.0 5.0 0.00 0.52 0.00 89 1011.8
20260510100057 77 141 2.0 5.0 0.00 0.52 0.00 89 1011.8
20260510094552 77 141 2.0 4.0 0.00 0.52 0.00 89 1011.8
20260510093059 77 141 2.0 5.0 0.00 0.52 0.00 88 1011.7
20260510093009 77 141 2.0 5.0 0.00 0.52 0.00 88 1011.7
20260510091601 77 141 2.0 5.0 0.00 0.52 0.00 88 1011.6
20260510091508 77 141 2.0 5.0 0.00 0.52 0.00 88 1011.7
20260510090053 77 141 3.0 4.0 0.00 0.52 0.00 88 1011.5
20260510084601 77 141 2.0 5.0 0.00 0.52 0.00 88 1011.6
20260510083005 77 141 2.0 5.0 0.00 0.52 0.00 88 1011.5
20260510081504 77 141 2.0 8.0 0.00 0.52 0.00 88 1011.6
20260510080011 77 141 2.0 7.0 0.00 0.52 0.00 87 1011.8
20260510074515 77 141 3.0 7.0 0.00 0.52 0.52 87 1011.7
20260510073021 77 137 4.0 8.0 0.00 0.52 0.52 87 1011.8
20260510071508 77 138 3.0 5.0 0.00 0.52 0.52 87 1011.9
20260510070022 77 138 3.0 7.0 0.00 0.52 0.52 86 1011.9
20260510064507 78 135 3.0 8.0 0.00 0.52 0.52 86 1012.0
20260510063011 78 122 6.0 11.0 0.00 0.52 0.52 85 1012.2
20260510061513 78 121 6.0 11.0 0.00 0.52 0.52 85 1012.3
20260510060017 78 119 6.0 11.0 0.00 0.52 0.52 84 1012.2
20260510054523 78 123 5.0 10.0 0.00 0.52 0.52 84 1012.3
20260510053019 78 132 6.0 10.0 0.00 0.52 0.52 84 1012.0
20260510051536 77 165 7.0 12.0 0.00 0.52 0.52 84 1011.4
20260510050029 78 136 7.0 12.0 0.00 0.52 0.52 83 1011.7
20260510044537 78 136 4.0 8.0 0.00 0.52 0.52 83 1011.9
20260510043050 78 141 7.0 11.0 0.00 0.52 0.52 82 1011.4
20260510041605 78 119 5.0 12.0 0.00 0.52 0.52 82 1011.4
20260510040033 78 121 7.0 13.0 0.00 0.52 0.52 82 1011.5
20260510034539 78 122 6.0 9.0 0.00 0.52 0.52 81 1011.4
20260510033046 78 118 7.0 11.0 0.00 0.52 0.52 80 1011.2
20260510031556 78 116 8.0 12.0 0.00 0.52 0.52 79 1011.1
20260510030058 78 120 8.0 13.0 0.00 0.52 0.52 79 1011.0
20260510024600 78 117 8.0 13.0 0.00 0.52 0.52 78 1010.7
20260510023059 79 129 9.0 13.0 0.00 0.52 0.52 76 1010.5
20260510021504 79 123 8.0 12.0 0.00 0.52 0.52 75 1010.5
20260510020004 79 135 9.0 14.0 0.00 0.52 0.52 74 1010.4
20260510014520 79 129 10.0 15.0 0.00 0.52 0.52 75 1010.1
20260510013105 79 128 7.0 11.0 0.00 0.52 0.52 75 1009.8
20260510011556 79 115 8.0 12.0 0.00 0.52 0.52 73 1009.9
20260510010005 80 144 5.0 11.0 0.00 0.52 0.52 71 1009.9
20260510004506 80 134 6.0 11.0 0.00 0.52 0.52 72 1010.0
20260510003018 81 124 5.0 9.0 0.00 0.52 0.52 72 1010.0
20260510001527 80 126 7.0 10.0 0.00 0.52 0.52 72 1010.2
20260510000030 81 122 7.0 11.0 0.00 0.52 0.52 72 1010.0
20260509234550 82 145 6.0 12.0 0.00 0.52 0.52 71 1010.1
20260509233044 82 121 7.0 12.0 0.00 0.52 0.52 70 1010.2
20260509231551 82 126 6.0 12.0 0.00 0.52 0.52 71 1010.3
20260509230059 82 115 8.0 13.0 0.00 0.52 0.52 72 1010.3
20260509230006 82 111 8.0 13.0 0.00 0.52 0.52 72 1010.3
20260509224551 82 122 8.0 13.0 0.00 0.52 0.52 70 1010.3
20260509223031 82 111 8.0 13.0 0.00 0.52 0.52 69 1010.4
20260509221555 82 103 7.0 13.0 0.00 0.52 0.52 71 1010.5
20260509220035 83 111 10.0 16.0 0.00 0.52 0.52 69 1010.3
20260509214543 83 98 7.0 13.0 0.00 0.52 0.52 63 1010.1
20260509213048 83 110 8.0 13.0 0.00 0.52 0.52 68 1010.3
20260509211554 83 111 8.0 12.0 0.00 0.52 0.52 65 1010.3
20260509210100 84 113 8.0 13.0 0.00 0.52 0.52 61 1010.2
20260509204506 84 113 7.0 11.0 0.00 0.52 0.52 59 1010.3
20260509203006 85 112 6.0 10.0 0.00 0.52 0.52 58 1010.3
20260509201510 84 105 6.0 9.0 0.00 0.52 0.52 56 1010.4
20260509200012 85 111 6.0 11.0 0.00 0.52 0.52 53 1010.4
20260509194557 86 98 7.0 10.0 0.00 0.52 0.52 52 1010.8
20260509193059 86 109 6.0 10.0 0.00 0.52 0.52 57 1010.8
20260509191606 87 107 7.0 10.0 0.00 0.52 0.52 52 1010.6
20260509190048 88 125 3.0 9.0 0.00 0.52 0.52 49 1010.4
20260509184541 85 317 2.0 6.0 0.00 0.52 0.52 55 1010.5
20260509183044 84 323 5.0 11.0 0.00 0.52 0.52 56 1010.5
20260509181555 83 321 9.0 12.0 0.00 0.52 0.52 55 1010.4
20260509180051 83 320 5.0 10.0 0.00 0.52 0.52 57 1010.5
20260509174551 83 317 4.0 8.0 0.00 0.52 0.52 59 1010.6
20260509173104 82 319 4.0 9.0 0.00 0.52 0.52 61 1010.6
20260509173010 82 319 4.0 9.0 0.00 0.52 0.52 61 1010.6
20260509171617 81 314 1.0 8.0 0.00 0.52 0.52 63 1010.8
20260509170100 80 313 2.0 10.0 0.00 0.52 0.52 66 1010.9
20260509170011 80 313 2.0 10.0 0.00 0.52 0.52 66 1010.9
20260509164504 79 309 7.0 12.0 0.00 0.52 0.52 68 1011.3
20260509163003 80 309 7.0 11.0 0.00 0.52 0.52 69 1011.4
20260509161510 79 312 8.0 10.0 0.00 0.52 0.52 71 1011.5
20260509160017 80 119 0.0 4.0 0.00 0.52 0.52 68 1011.4
20260509154513 79 119 0.0 2.0 0.00 0.52 0.52 72 1011.0
20260509153015 79 119 1.0 4.0 0.00 0.52 0.52 74 1010.5
20260509151519 78 119 4.0 11.0 0.00 0.52 0.52 74 1010.3
20260509150025 77 121 8.0 13.0 0.00 0.52 0.52 75 1009.9
20260509144524 77 119 8.0 16.0 0.00 0.52 0.52 78 1009.8
20260509143025 76 113 13.0 17.0 0.00 0.52 0.52 78 1009.8
20260509141535 76 121 11.0 17.0 0.02 0.52 0.52 78 1009.5
20260509140036 75 96 12.0 18.0 0.11 0.52 0.52 78 1009.9
20260509134550 74 101 13.0 24.0 0.16 0.52 0.52 81 1009.7
20260509133038 73 104 15.0 22.0 0.21 0.52 0.52 84 1009.8
20260509131557 72 116 7.0 11.0 0.23 0.50 0.51 85 1012.4
20260509130051 72 117 6.0 11.0 0.18 0.41 0.41 83 1012.8
20260509124549 72 110 7.0 11.0 0.14 0.36 0.36 83 1012.7
20260509123100 72 105 3.0 9.0 0.16 0.31 0.31 83 1012.8
20260509121554 72 92 5.0 9.0 0.15 0.27 0.27 83 1012.6